Time,TemperatureF,DewpointF,PressureIn,WindDirection,WindDirectionDegrees,WindSpeedMPH,WindSpeedGustMPH,Humidity,HourlyPrecipIn,Conditions,Clouds,dailyrainin,SoftwareType,DateUTC
2013-03-25 00:00:00,29.5,28.8,29.79,North,355,7.0,-999.0,97,0.00,,,0.05,Wunderground v.1.15,2013-03-25 05:00:00,
2013-03-25 00:05:00,29.4,28.7,29.79,NNE,19,7.0,-999.0,97,0.00,,,0.00,Wunderground v.1.15,2013-03-25 05:05:00,
2013-03-25 00:14:00,29.4,28.7,29.79,NNE,27,8.0,-999.0,97,0.00,,,0.00,Wunderground v.1.15,2013-03-25 05:14:00,
2013-03-25 00:19:00,29.3,28.6,29.79,NNE,22,7.0,-999.0,97,0.00,,,0.00,Wunderground v.1.15,2013-03-25 05:19:00,
2013-03-25 00:24:00,29.3,28.6,29.80,NNE,12,7.0,-999.0,97,0.00,,,0.00,Wunderground v.1.15,2013-03-25 05:24:00,
2013-03-25 00:29:00,29.2,28.5,29.80,NNE,28,7.0,-999.0,97,0.00,,,0.00,Wunderground v.1.15,2013-03-25 05:29:00,
2013-03-25 00:34:00,28.9,28.2,29.80,North,11,9.0,-999.0,97,0.00,,,0.00,Wunderground v.1.15,2013-03-25 05:34:00,
2013-03-25 00:40:00,28.8,28.1,29.80,NNE,21,10.0,-999.0,97,0.00,,,0.00,Wunderground v.1.15,2013-03-25 05:40:00,
2013-03-25 00:45:00,28.8,28.1,29.80,NNE,18,9.0,-999.0,97,0.00,,,0.00,Wunderground v.1.15,2013-03-25 05:45:00,
2013-03-25 00:50:00,28.7,28.0,29.80,North,9,8.0,-999.0,97,0.00,,,0.00,Wunderground v.1.15,2013-03-25 05:50:00,
2013-03-25 00:55:00,28.7,28.0,29.80,NNE,21,9.0,-999.0,97,0.00,,,0.00,Wunderground v.1.15,2013-03-25 05:55:00,
2013-03-25 01:00:00,28.5,27.8,29.80,NE,38,9.0,-999.0,97,0.00,,,0.00,Wunderground v.1.15,2013-03-25 06:00:00,
2013-03-25 01:05:00,28.5,27.8,29.81,NNE,20,8.0,-999.0,97,0.00,,,0.00,Wunderground v.1.15,2013-03-25 06:05:00,
2013-03-25 01:15:00,28.6,27.9,29.81,NNE,24,7.0,-999.0,97,0.00,,,0.00,Wunderground v.1.15,2013-03-25 06:15:00,
2013-03-25 01:20:00,28.6,27.9,29.81,NNE,24,6.0,-999.0,97,0.00,,,0.00,Wunderground v.1.15,2013-03-25 06:20:00,
2013-03-25 01:25:00,28.6,27.9,29.81,NNE,17,6.0,-999.0,97,0.00,,,0.00,Wunderground v.1.15,2013-03-25 06:25:00,
2013-03-25 01:30:00,28.5,27.8,29.81,NE,36,8.0,-999.0,97,0.00,,,0.00,Wunderground v.1.15,2013-03-25 06:30:00,
2013-03-25 01:35:00,28.4,27.7,29.81,NNE,13,7.0,-999.0,97,0.00,,,0.00,Wunderground v.1.15,2013-03-25 06:35:00,
2013-03-25 01:40:00,28.3,27.3,29.81,NNE,23,6.0,-999.0,96,0.00,,,0.00,Wunderground v.1.15,2013-03-25 06:40:00,
2013-03-25 01:50:00,28.2,27.5,29.81,NNW,344,7.0,-999.0,97,0.00,,,0.00,Wunderground v.1.15,2013-03-25 06:50:00,
2013-03-25 01:55:00,28.1,27.4,29.81,NE,50,7.0,-999.0,97,0.00,,,0.00,Wunderground v.1.15,2013-03-25 06:55:00,
2013-03-25 02:04:00,28.0,27.3,29.82,NNE,13,7.0,-999.0,97,0.00,,,0.00,Wunderground v.1.15,2013-03-25 07:04:00,
2013-03-25 02:09:00,27.9,26.9,29.81,NNW,340,6.0,-999.0,96,0.00,,,0.00,Wunderground v.1.15,2013-03-25 07:09:00,
2013-03-25 02:15:00,27.9,26.9,29.82,North,355,6.0,-999.0,96,0.00,,,0.00,Wunderground v.1.15,2013-03-25 07:15:00,
2013-03-25 02:20:00,27.9,26.9,29.82,North,355,6.0,-999.0,96,0.00,,,0.00,Wunderground v.1.15,2013-03-25 07:20:00,
2013-03-25 02:25:00,27.9,26.9,29.82,NNE,23,6.0,-999.0,96,0.00,,,0.00,Wunderground v.1.15,2013-03-25 07:25:00,
2013-03-25 02:30:00,27.8,26.8,29.82,NNE,12,6.0,-999.0,96,0.00,,,0.00,Wunderground v.1.15,2013-03-25 07:30:00,
2013-03-25 02:35:00,27.8,26.8,29.82,North,11,5.0,-999.0,96,0.00,,,0.00,Wunderground v.1.15,2013-03-25 07:35:00,
2013-03-25 02:40:00,27.8,26.8,29.82,NNE,12,6.0,-999.0,96,0.00,,,0.00,Wunderground v.1.15,2013-03-25 07:40:00,
2013-03-25 02:50:00,27.8,26.8,29.82,NNE,26,5.0,-999.0,96,0.00,,,0.00,Wunderground v.1.15,2013-03-25 07:50:00,
2013-03-25 02:55:00,27.8,26.8,29.82,NNW,333,6.0,-999.0,96,0.00,,,0.00,Wunderground v.1.15,2013-03-25 07:55:00,
2013-03-25 03:00:00,27.8,26.8,29.82,North,349,6.0,-999.0,96,0.00,,,0.00,Wunderground v.1.15,2013-03-25 08:00:00,
2013-03-25 03:05:00,27.8,26.8,29.82,North,5,6.0,-999.0,96,0.00,,,0.00,Wunderground v.1.15,2013-03-25 08:05:00,
2013-03-25 03:10:00,27.8,26.8,29.82,North,360,7.0,-999.0,96,0.00,,,0.00,Wunderground v.1.15,2013-03-25 08:10:00,
2013-03-25 03:14:00,27.7,26.7,29.82,NW,320,6.0,-999.0,96,0.00,,,0.00,Wunderground v.1.15,2013-03-25 08:14:00,
2013-03-25 03:20:00,27.7,26.7,29.81,NNE,26,7.0,-999.0,96,0.00,,,0.00,Wunderground v.1.15,2013-03-25 08:20:00,
2013-03-25 03:25:00,27.7,26.7,29.81,North,360,7.0,-999.0,96,0.00,,,0.00,Wunderground v.1.15,2013-03-25 08:25:00,
2013-03-25 03:30:00,27.7,26.7,29.82,NNE,19,7.0,-999.0,96,0.00,,,0.00,Wunderground v.1.15,2013-03-25 08:30:00,
2013-03-25 03:35:00,27.6,26.6,29.81,NNE,22,7.0,-999.0,96,0.00,,,0.00,Wunderground v.1.15,2013-03-25 08:35:00,
2013-03-25 03:40:00,27.6,26.6,29.82,NNW,348,6.0,-999.0,96,0.00,,,0.00,Wunderground v.1.15,2013-03-25 08:40:00,
2013-03-25 03:45:00,27.6,26.6,29.82,North,5,6.0,-999.0,96,0.00,,,0.00,Wunderground v.1.15,2013-03-25 08:45:00,
2013-03-25 03:55:00,27.5,26.5,29.82,North,11,6.0,-999.0,96,0.00,,,0.00,Wunderground v.1.15,2013-03-25 08:55:00,
2013-03-25 04:00:00,27.6,26.6,29.82,NNW,345,6.0,-999.0,96,0.00,,,0.00,Wunderground v.1.15,2013-03-25 09:00:00,
2013-03-25 04:05:00,27.5,26.5,29.82,North,360,6.0,-999.0,96,0.00,,,0.00,Wunderground v.1.15,2013-03-25 09:05:00,
2013-03-25 04:10:00,27.5,26.5,29.82,North,9,6.0,-999.0,96,0.00,,,0.00,Wunderground v.1.15,2013-03-25 09:10:00,
2013-03-25 04:15:00,27.4,26.4,29.82,North,355,5.0,-999.0,96,0.00,,,0.00,Wunderground v.1.15,2013-03-25 09:15:00,
2013-03-25 04:25:00,27.3,26.3,29.82,NNE,20,6.0,-999.0,96,0.00,,,0.00,Wunderground v.1.15,2013-03-25 09:25:00,
2013-03-25 04:29:00,27.3,26.3,29.82,NNE,21,6.0,-999.0,96,0.00,,,0.00,Wunderground v.1.15,2013-03-25 09:29:00,
2013-03-25 04:34:00,27.2,26.2,29.82,North,355,5.0,-999.0,96,0.00,,,0.00,Wunderground v.1.15,2013-03-25 09:34:00,
2013-03-25 04:39:00,27.2,26.2,29.83,NNW,340,5.0,-999.0,96,0.00,,,0.00,Wunderground v.1.15,2013-03-25 09:39:00,
2013-03-25 04:44:00,27.2,26.2,29.83,NNW,345,5.0,-999.0,96,0.00,,,0.00,Wunderground v.1.15,2013-03-25 09:44:00,
2013-03-25 04:49:00,27.1,26.1,29.83,NNE,22,5.0,-999.0,96,0.00,,,0.00,Wunderground v.1.15,2013-03-25 09:49:00,
2013-03-25 04:55:00,27.1,26.1,29.83,North,5,4.0,-999.0,96,0.00,,,0.00,Wunderground v.1.15,2013-03-25 09:55:00,
2013-03-25 05:00:00,27.1,26.1,29.83,NNE,12,4.0,-999.0,96,0.00,,,0.00,Wunderground v.1.15,2013-03-25 10:00:00,
2013-03-25 05:05:00,27.1,26.1,29.83,NNE,13,5.0,-999.0,96,0.00,,,0.00,Wunderground v.1.15,2013-03-25 10:05:00,
2013-03-25 05:10:00,27.0,26.0,29.83,North,360,5.0,-999.0,96,0.00,,,0.00,Wunderground v.1.15,2013-03-25 10:10:00,
2013-03-25 05:15:00,26.9,25.9,29.83,NNW,345,5.0,-999.0,96,0.00,,,0.00,Wunderground v.1.15,2013-03-25 10:15:00,
2013-03-25 05:20:00,26.9,25.9,29.83,NNE,22,5.0,-999.0,96,0.00,,,0.00,Wunderground v.1.15,2013-03-25 10:20:00,
2013-03-25 05:30:00,26.8,25.8,29.84,NNW,343,4.0,-999.0,96,0.00,,,0.00,Wunderground v.1.15,2013-03-25 10:30:00,
2013-03-25 05:35:00,26.7,25.7,29.84,NNE,24,3.0,-999.0,96,0.00,,,0.00,Wunderground v.1.15,2013-03-25 10:35:00,
2013-03-25 05:40:00,26.7,25.7,29.84,NNW,338,4.0,-999.0,96,0.00,,,0.00,Wunderground v.1.15,2013-03-25 10:40:00,
2013-03-25 05:45:00,26.7,25.7,29.83,NNW,342,4.0,-999.0,96,0.00,,,0.00,Wunderground v.1.15,2013-03-25 10:45:00,
2013-03-25 05:50:00,26.9,25.9,29.84,NNW,346,4.0,-999.0,96,0.00,,,0.00,Wunderground v.1.15,2013-03-25 10:50:00,
2013-03-25 06:00:00,27.0,26.0,29.84,NNE,22,5.0,-999.0,96,0.00,,,0.00,Wunderground v.1.15,2013-03-25 11:00:00,
2013-03-25 06:05:00,27.1,25.9,29.84,NNE,18,5.0,-999.0,95,0.00,,,0.00,Wunderground v.1.15,2013-03-25 11:05:00,
2013-03-25 06:10:00,27.1,25.9,29.85,NNW,335,5.0,-999.0,95,0.00,,,0.00,Wunderground v.1.15,2013-03-25 11:10:00,
2013-03-25 06:15:00,27.1,25.9,29.85,NE,46,5.0,-999.0,95,0.00,,,0.00,Wunderground v.1.15,2013-03-25 11:15:00,
2013-03-25 06:20:00,27.1,25.9,29.85,NNE,18,5.0,-999.0,95,0.00,,,0.00,Wunderground v.1.15,2013-03-25 11:20:00,
2013-03-25 06:25:00,27.1,25.9,29.85,North,5,5.0,-999.0,95,0.00,,,0.00,Wunderground v.1.15,2013-03-25 11:25:00,
2013-03-25 06:34:00,27.0,25.5,29.85,North,10,4.0,-999.0,94,0.00,,,0.00,Wunderground v.1.15,2013-03-25 11:34:00,
2013-03-25 06:39:00,27.0,25.5,29.85,North,360,4.0,-999.0,94,0.00,,,0.00,Wunderground v.1.15,2013-03-25 11:39:00,
2013-03-25 06:44:00,27.0,25.5,29.85,NNE,26,5.0,-999.0,94,0.00,,,0.00,Wunderground v.1.15,2013-03-25 11:44:00,
2013-03-25 06:49:00,27.0,25.5,29.86,NNE,17,5.0,-999.0,94,0.00,,,0.00,Wunderground v.1.15,2013-03-25 11:49:00,
2013-03-25 06:55:00,26.9,25.4,29.86,North,5,4.0,-999.0,94,0.00,,,0.00,Wunderground v.1.15,2013-03-25 11:55:00,
2013-03-25 07:05:00,26.8,25.3,29.86,NNE,26,4.0,-999.0,94,0.00,,,0.00,Wunderground v.1.15,2013-03-25 12:05:00,
2013-03-25 07:10:00,26.8,25.3,29.86,North,11,5.0,-999.0,94,0.00,,,0.00,Wunderground v.1.15,2013-03-25 12:10:00,
2013-03-25 07:15:00,26.7,25.2,29.87,NNE,24,5.0,-999.0,94,0.00,,,0.00,Wunderground v.1.15,2013-03-25 12:15:00,
2013-03-25 07:20:00,26.7,25.2,29.87,NNW,340,6.0,-999.0,94,0.00,,,0.00,Wunderground v.1.15,2013-03-25 12:20:00,
2013-03-25 07:25:00,26.7,24.9,29.87,North,355,7.0,-999.0,93,0.00,,,0.00,Wunderground v.1.15,2013-03-25 12:25:00,
2013-03-25 07:34:00,26.7,24.9,29.87,NNW,335,6.0,-999.0,93,0.00,,,0.00,Wunderground v.1.15,2013-03-25 12:34:00,
2013-03-25 07:39:00,26.7,24.9,29.88,NNE,30,5.0,-999.0,93,0.00,,,0.00,Wunderground v.1.15,2013-03-25 12:39:00,
2013-03-25 07:44:00,26.7,24.9,29.88,NNW,335,4.0,-999.0,93,0.00,,,0.00,Wunderground v.1.15,2013-03-25 12:44:00,
2013-03-25 07:49:00,26.7,24.9,29.88,NNE,12,5.0,-999.0,93,0.00,,,0.00,Wunderground v.1.15,2013-03-25 12:49:00,
2013-03-25 07:54:00,26.8,25.0,29.88,WNW,302,6.0,-999.0,93,0.00,,,0.00,Wunderground v.1.15,2013-03-25 12:54:00,
2013-03-25 07:59:00,26.8,25.0,29.89,NNE,22,6.0,-999.0,93,0.00,,,0.00,Wunderground v.1.15,2013-03-25 12:59:00,
2013-03-25 08:05:00,26.9,25.1,29.89,North,9,6.0,-999.0,93,0.00,,,0.00,Wunderground v.1.15,2013-03-25 13:05:00,
2013-03-25 08:10:00,26.9,25.1,29.89,North,5,6.0,-999.0,93,0.00,,,0.00,Wunderground v.1.15,2013-03-25 13:10:00,
2013-03-25 08:15:00,26.9,25.1,29.90,North,5,5.0,-999.0,93,0.00,,,0.00,Wunderground v.1.15,2013-03-25 13:15:00,
2013-03-25 08:20:00,27.0,25.2,29.90,North,355,4.0,-999.0,93,0.00,,,0.00,Wunderground v.1.15,2013-03-25 13:20:00,
2013-03-25 08:25:00,27.0,25.2,29.90,North,355,5.0,-999.0,93,0.00,,,0.00,Wunderground v.1.15,2013-03-25 13:25:00,
2013-03-25 08:30:00,27.1,25.3,29.91,NNE,32,6.0,-999.0,93,0.00,,,0.00,Wunderground v.1.15,2013-03-25 13:30:00,
2013-03-25 08:40:00,27.1,25.3,29.91,NNW,329,6.0,-999.0,93,0.00,,,0.00,Wunderground v.1.15,2013-03-25 13:40:00,
2013-03-25 08:45:00,27.2,25.4,29.91,North,355,6.0,-999.0,93,0.00,,,0.00,Wunderground v.1.15,2013-03-25 13:45:00,
2013-03-25 08:50:00,27.2,25.4,29.92,NNW,348,6.0,-999.0,93,0.00,,,0.00,Wunderground v.1.15,2013-03-25 13:50:00,
2013-03-25 08:54:00,27.2,25.4,29.92,NNW,346,6.0,-999.0,93,0.00,,,0.00,Wunderground v.1.15,2013-03-25 13:54:00,
2013-03-25 08:59:00,27.2,25.4,29.92,ENE,61,7.0,-999.0,93,0.00,,,0.00,Wunderground v.1.15,2013-03-25 13:59:00,
2013-03-25 09:10:00,27.3,25.5,29.92,NNE,25,6.0,-999.0,93,0.00,,,0.00,Wunderground v.1.15,2013-03-25 14:10:00,
2013-03-25 09:15:00,27.3,25.5,29.92,WNW,293,7.0,-999.0,93,0.00,,,0.00,Wunderground v.1.15,2013-03-25 14:15:00,
2013-03-25 09:20:00,27.4,25.6,29.92,NNE,22,7.0,-999.0,93,0.00,,,0.00,Wunderground v.1.15,2013-03-25 14:20:00,
2013-03-25 09:25:00,27.5,25.7,29.92,North,355,7.0,-999.0,93,0.00,,,0.00,Wunderground v.1.15,2013-03-25 14:25:00,
2013-03-25 09:34:00,27.7,25.9,29.93,North,5,6.0,-999.0,93,0.00,,,0.00,Wunderground v.1.15,2013-03-25 14:34:00,
2013-03-25 09:40:00,27.7,25.9,29.93,North,5,8.0,-999.0,93,0.00,,,0.00,Wunderground v.1.15,2013-03-25 14:40:00,
2013-03-25 09:45:00,27.8,26.0,29.94,NNE,20,7.0,-999.0,93,0.00,,,0.00,Wunderground v.1.15,2013-03-25 14:45:00,
2013-03-25 09:50:00,27.9,26.1,29.94,NNE,12,7.0,-999.0,93,0.00,,,0.00,Wunderground v.1.15,2013-03-25 14:50:00,
2013-03-25 09:55:00,28.1,26.3,29.94,North,355,6.0,-999.0,93,0.00,,,0.00,Wunderground v.1.15,2013-03-25 14:55:00,
2013-03-25 10:00:00,28.3,26.5,29.94,NNE,25,6.0,-999.0,93,0.00,,,0.00,Wunderground v.1.15,2013-03-25 15:00:00,
2013-03-25 10:05:00,28.4,26.6,29.94,North,5,6.0,-999.0,93,0.00,,,0.00,Wunderground v.1.15,2013-03-25 15:05:00,
2013-03-25 10:15:00,28.6,26.6,29.94,NNE,17,7.0,-999.0,92,0.00,,,0.00,Wunderground v.1.15,2013-03-25 15:15:00,
2013-03-25 10:20:00,28.7,26.7,29.95,NNE,12,7.0,-999.0,92,0.00,,,0.00,Wunderground v.1.15,2013-03-25 15:20:00,
2013-03-25 10:25:00,28.8,26.8,29.95,NNE,18,7.0,-999.0,92,0.00,,,0.00,Wunderground v.1.15,2013-03-25 15:25:00,
2013-03-25 10:30:00,28.8,26.8,29.95,NNE,16,7.0,-999.0,92,0.00,,,0.00,Wunderground v.1.15,2013-03-25 15:30:00,
2013-03-25 10:35:00,28.9,26.9,29.95,NNW,341,8.0,-999.0,92,0.00,,,0.00,Wunderground v.1.15,2013-03-25 15:35:00,
2013-03-25 10:45:00,28.8,26.5,29.96,NNW,340,8.0,-999.0,91,0.00,,,0.00,Wunderground v.1.15,2013-03-25 15:45:00,
2013-03-25 10:50:00,28.8,26.8,29.96,NNE,24,8.0,-999.0,92,0.00,,,0.00,Wunderground v.1.15,2013-03-25 15:50:00,
2013-03-25 10:55:00,28.8,26.5,29.96,NW,317,7.0,-999.0,91,0.00,,,0.01,Wunderground v.1.15,2013-03-25 15:55:00,
2013-03-25 11:00:00,28.9,26.6,29.97,NE,37,6.0,-999.0,91,0.00,,,0.01,Wunderground v.1.15,2013-03-25 16:00:00,
2013-03-25 11:05:00,29.0,27.0,29.97,NNE,16,6.0,-999.0,92,0.00,,,0.01,Wunderground v.1.15,2013-03-25 16:05:00,
2013-03-25 11:10:00,29.2,27.2,29.97,North,360,5.0,-999.0,92,0.00,,,0.01,Wunderground v.1.15,2013-03-25 16:10:00,
2013-03-25 11:20:00,29.7,27.4,29.97,NNW,331,6.0,-999.0,91,0.00,,,0.01,Wunderground v.1.15,2013-03-25 16:20:00,
2013-03-25 11:25:00,29.9,27.6,29.97,North,360,7.0,-999.0,91,0.00,,,0.01,Wunderground v.1.15,2013-03-25 16:25:00,
2013-03-25 11:29:00,30.1,27.8,29.98,NNE,26,7.0,-999.0,91,0.00,,,0.01,Wunderground v.1.15,2013-03-25 16:29:00,
2013-03-25 11:34:00,30.5,28.2,29.97,NNE,12,7.0,-999.0,91,0.00,,,0.01,Wunderground v.1.15,2013-03-25 16:34:00,
2013-03-25 11:39:00,30.7,28.1,29.98,North,9,6.0,-999.0,90,0.00,,,0.01,Wunderground v.1.15,2013-03-25 16:39:00,
2013-03-25 11:45:00,31.1,28.5,29.98,NE,45,6.0,-999.0,90,0.00,,,0.02,Wunderground v.1.15,2013-03-25 16:45:00,
2013-03-25 11:50:00,31.4,28.8,29.98,WNW,297,5.0,-999.0,90,0.06,,,0.03,Wunderground v.1.15,2013-03-25 16:50:00,
2013-03-25 11:55:00,31.5,28.6,29.98,NNW,331,6.0,-999.0,89,0.06,,,0.03,Wunderground v.1.15,2013-03-25 16:55:00,
2013-03-25 12:00:00,31.6,28.7,29.98,NNE,26,7.0,-999.0,89,0.06,,,0.03,Wunderground v.1.15,2013-03-25 17:00:00,
2013-03-25 12:05:00,31.6,28.5,29.98,North,355,8.0,-999.0,88,0.04,,,0.03,Wunderground v.1.15,2013-03-25 17:05:00,
2013-03-25 12:10:00,31.6,28.5,29.98,NNW,342,8.0,-999.0,88,0.00,,,0.03,Wunderground v.1.15,2013-03-25 17:10:00,
2013-03-25 12:20:00,32.1,28.7,29.98,NNW,344,7.0,-999.0,87,0.00,,,0.04,Wunderground v.1.15,2013-03-25 17:20:00,
2013-03-25 12:25:00,32.1,28.7,29.99,NNW,344,8.0,-999.0,87,0.00,,,0.04,Wunderground v.1.15,2013-03-25 17:25:00,
2013-03-25 12:30:00,32.1,28.7,29.99,North,5,9.0,-999.0,87,0.04,,,0.05,Wunderground v.1.15,2013-03-25 17:30:00,
2013-03-25 12:35:00,32.2,28.8,29.99,North,350,9.0,-999.0,87,0.04,,,0.05,Wunderground v.1.15,2013-03-25 17:35:00,
2013-03-25 12:40:00,32.5,28.8,29.99,North,9,8.0,-999.0,86,0.05,,,0.06,Wunderground v.1.15,2013-03-25 17:40:00,
2013-03-25 12:45:00,32.5,28.8,29.99,NNW,341,9.0,-999.0,86,0.05,,,0.06,Wunderground v.1.15,2013-03-25 17:45:00,
2013-03-25 12:54:00,32.8,28.8,29.99,NNW,338,10.0,-999.0,85,0.04,,,0.07,Wunderground v.1.15,2013-03-25 17:54:00,
2013-03-25 12:59:00,32.9,29.2,29.99,NNE,22,9.0,-999.0,86,0.04,,,0.07,Wunderground v.1.15,2013-03-25 17:59:00,
2013-03-25 13:04:00,33.2,29.2,29.98,North,360,7.0,-999.0,85,0.06,,,0.08,Wunderground v.1.15,2013-03-25 18:04:00,
2013-03-25 13:09:00,33.5,29.8,29.99,NNW,327,7.0,-999.0,86,0.06,,,0.08,Wunderground v.1.15,2013-03-25 18:09:00,
2013-03-25 13:14:00,33.6,29.3,29.99,NNW,346,7.0,-999.0,84,0.06,,,0.08,Wunderground v.1.15,2013-03-25 18:14:00,
2013-03-25 13:20:00,33.4,29.1,29.99,NNE,16,9.0,-999.0,84,0.04,,,0.08,Wunderground v.1.15,2013-03-25 18:20:00,
2013-03-25 13:25:00,33.3,29.0,29.99,WNW,289,10.0,-999.0,84,0.04,,,0.09,Wunderground v.1.15,2013-03-25 18:25:00,
2013-03-25 13:30:00,33.4,29.1,29.99,NNE,19,9.0,-999.0,84,0.06,,,0.10,Wunderground v.1.15,2013-03-25 18:30:00,
2013-03-25 13:35:00,33.5,29.5,29.99,NNE,23,8.0,-999.0,85,0.06,,,0.10,Wunderground v.1.15,2013-03-25 18:35:00,
2013-03-25 13:45:00,34.3,30.0,29.99,North,360,6.0,-999.0,84,0.10,,,0.12,Wunderground v.1.15,2013-03-25 18:45:00,
2013-03-25 13:50:00,34.5,29.9,30.00,NNW,331,6.0,-999.0,83,0.10,,,0.12,Wunderground v.1.15,2013-03-25 18:50:00,
2013-03-25 13:55:00,34.4,29.8,29.99,NNE,24,7.0,-999.0,83,0.06,,,0.13,Wunderground v.1.15,2013-03-25 18:55:00,
2013-03-25 14:05:00,34.3,29.4,29.99,North,360,8.0,-999.0,82,0.10,,,0.14,Wunderground v.1.15,2013-03-25 19:05:00,
2013-03-25 14:15:00,34.5,29.9,30.00,NNW,334,7.0,-999.0,83,0.06,,,0.15,Wunderground v.1.15,2013-03-25 19:15:00,
2013-03-25 14:20:00,34.7,29.8,30.00,NNE,19,6.0,-999.0,82,0.08,,,0.16,Wunderground v.1.15,2013-03-25 19:20:00,
2013-03-25 14:30:00,35.0,30.1,30.00,NW,323,6.0,-999.0,82,0.06,,,0.17,Wunderground v.1.15,2013-03-25 19:30:00,
2013-03-25 14:35:00,35.3,30.4,30.00,NNW,327,6.0,-999.0,82,0.16,,,0.18,Wunderground v.1.15,2013-03-25 19:35:00,
2013-03-25 14:40:00,35.7,30.7,30.00,North,9,6.0,-999.0,82,0.09,,,0.19,Wunderground v.1.15,2013-03-25 19:40:00,
2013-03-25 14:45:00,36.3,31.6,30.00,North,5,5.0,-999.0,83,0.09,,,0.20,Wunderground v.1.15,2013-03-25 19:45:00,
2013-03-25 14:50:00,35.9,29.7,30.00,NNW,327,6.0,-999.0,78,0.09,,,0.20,Wunderground v.1.15,2013-03-25 19:50:00,
2013-03-25 15:00:00,35.8,30.2,30.00,NE,36,7.0,-999.0,80,0.11,,,0.22,Wunderground v.1.15,2013-03-25 20:00:00,
2013-03-25 15:05:00,35.9,30.0,30.01,NNW,344,7.0,-999.0,79,0.06,,,0.22,Wunderground v.1.15,2013-03-25 20:05:00,
2013-03-25 15:10:00,35.9,29.7,30.01,NW,323,8.0,-999.0,78,0.06,,,0.23,Wunderground v.1.15,2013-03-25 20:10:00,
2013-03-25 15:15:00,36.0,30.4,30.01,NW,313,8.0,-999.0,80,0.06,,,0.24,Wunderground v.1.15,2013-03-25 20:15:00,
2013-03-25 15:20:00,35.9,30.0,30.01,NW,307,7.0,-999.0,79,0.06,,,0.24,Wunderground v.1.15,2013-03-25 20:20:00,
2013-03-25 15:25:00,35.6,30.0,30.01,NE,53,7.0,-999.0,80,0.07,,,0.25,Wunderground v.1.15,2013-03-25 20:25:00,
2013-03-25 15:34:00,35.5,29.9,30.02,North,5,6.0,-999.0,80,0.09,,,0.26,Wunderground v.1.15,2013-03-25 20:34:00,
2013-03-25 15:39:00,35.3,29.7,30.02,NNW,333,5.0,-999.0,80,0.06,,,0.26,Wunderground v.1.15,2013-03-25 20:39:00,
2013-03-25 15:44:00,35.0,29.8,30.02,NNE,27,6.0,-999.0,81,0.04,,,0.26,Wunderground v.1.15,2013-03-25 20:44:00,
2013-03-25 15:49:00,35.0,29.8,30.02,North,5,7.0,-999.0,81,0.00,,,0.27,Wunderground v.1.15,2013-03-25 20:49:00,
2013-03-25 15:54:00,34.9,29.7,30.03,North,5,8.0,-999.0,81,0.00,,,0.27,Wunderground v.1.15,2013-03-25 20:54:00,
2013-03-25 16:00:00,34.7,29.8,30.03,WNW,296,8.0,-999.0,82,0.06,,,0.28,Wunderground v.1.15,2013-03-25 21:00:00,
2013-03-25 16:05:00,34.7,29.5,30.04,North,350,8.0,-999.0,81,0.06,,,0.28,Wunderground v.1.15,2013-03-25 21:05:00,
2013-03-25 16:10:00,34.8,29.6,30.04,NNW,336,8.0,-999.0,81,0.05,,,0.28,Wunderground v.1.15,2013-03-25 21:10:00,
2013-03-25 16:15:00,35.0,29.8,30.04,NNW,337,7.0,-999.0,81,0.00,,,0.28,Wunderground v.1.15,2013-03-25 21:15:00,
2013-03-25 16:20:00,35.1,29.9,30.04,NE,38,6.0,-999.0,81,0.00,,,0.28,Wunderground v.1.15,2013-03-25 21:20:00,
2013-03-25 16:25:00,35.0,29.8,30.04,NW,326,6.0,-999.0,81,0.00,,,0.28,Wunderground v.1.15,2013-03-25 21:25:00,
2013-03-25 16:35:00,34.9,29.7,30.05,NNE,13,6.0,-999.0,81,0.00,,,0.29,Wunderground v.1.15,2013-03-25 21:35:00,
2013-03-25 16:40:00,34.7,29.8,30.05,North,9,6.0,-999.0,82,0.05,,,0.30,Wunderground v.1.15,2013-03-25 21:40:00,
2013-03-25 16:45:00,34.4,30.1,30.05,NNE,23,6.0,-999.0,84,0.05,,,0.30,Wunderground v.1.15,2013-03-25 21:45:00,
2013-03-25 16:50:00,34.1,29.8,30.06,NNE,22,6.0,-999.0,84,0.05,,,0.30,Wunderground v.1.15,2013-03-25 21:50:00,
2013-03-25 16:55:00,33.8,29.8,30.06,NNE,13,5.0,-999.0,85,0.04,,,0.30,Wunderground v.1.15,2013-03-25 21:55:00,
2013-03-25 17:00:00,33.8,30.1,30.07,NNW,344,5.0,-999.0,86,0.00,,,0.30,Wunderground v.1.15,2013-03-25 22:00:00,
2013-03-25 17:10:00,33.9,29.9,30.07,NNW,339,4.0,-999.0,85,0.00,,,0.30,Wunderground v.1.15,2013-03-25 22:10:00,
2013-03-25 17:15:00,33.9,29.9,30.07,North,5,4.0,-999.0,85,0.00,,,0.30,Wunderground v.1.15,2013-03-25 22:15:00,
2013-03-25 17:20:00,33.9,29.6,30.07,NW,306,4.0,-999.0,84,0.00,,,0.30,Wunderground v.1.15,2013-03-25 22:20:00,
2013-03-25 17:25:00,34.0,29.4,30.07,NNE,18,5.0,-999.0,83,0.00,,,0.30,Wunderground v.1.15,2013-03-25 22:25:00,
2013-03-25 17:30:00,34.0,29.7,30.07,NNE,18,7.0,-999.0,84,0.00,,,0.31,Wunderground v.1.15,2013-03-25 22:30:00,
2013-03-25 17:40:00,33.6,29.9,30.08,NNW,335,5.0,-999.0,86,0.00,,,0.31,Wunderground v.1.15,2013-03-25 22:40:00,
2013-03-25 17:45:00,33.5,29.8,30.08,NNW,348,4.0,-999.0,86,0.00,,,0.31,Wunderground v.1.15,2013-03-25 22:45:00,
2013-03-25 17:50:00,33.4,29.9,30.08,NNW,345,3.0,-999.0,87,0.00,,,0.31,Wunderground v.1.15,2013-03-25 22:50:00,
2013-03-25 17:55:00,33.4,29.9,30.09,NW,323,4.0,-999.0,87,0.00,,,0.31,Wunderground v.1.15,2013-03-25 22:55:00,
2013-03-25 18:00:00,33.2,29.8,30.09,NE,38,5.0,-999.0,87,0.00,,,0.31,Wunderground v.1.15,2013-03-25 23:00:00,
2013-03-25 18:05:00,33.1,29.9,30.09,NNE,17,4.0,-999.0,88,0.00,,,0.31,Wunderground v.1.15,2013-03-25 23:05:00,
2013-03-25 18:14:00,33.0,29.8,30.09,NNE,25,2.0,-999.0,88,0.00,,,0.31,Wunderground v.1.15,2013-03-25 23:14:00,
2013-03-25 18:19:00,33.0,29.8,30.10,North,5,2.0,-999.0,88,0.00,,,0.31,Wunderground v.1.15,2013-03-25 23:19:00,
2013-03-25 18:24:00,33.0,29.6,30.10,NNE,26,2.0,-999.0,87,0.00,,,0.31,Wunderground v.1.15,2013-03-25 23:24:00,
2013-03-25 18:29:00,33.1,29.7,30.10,NNE,25,2.0,-999.0,87,0.00,,,0.31,Wunderground v.1.15,2013-03-25 23:29:00,
2013-03-25 18:34:00,33.1,29.4,30.10,NNE,25,2.0,-999.0,86,0.00,,,0.31,Wunderground v.1.15,2013-03-25 23:34:00,
2013-03-25 18:44:00,33.3,29.0,30.11,NNE,17,3.0,-999.0,84,0.00,,,0.31,Wunderground v.1.15,2013-03-25 23:44:00,
2013-03-25 18:49:00,33.4,28.8,30.11,NE,46,4.0,-999.0,83,0.00,,,0.31,Wunderground v.1.15,2013-03-25 23:49:00,
2013-03-25 18:54:00,33.5,28.9,30.12,North,11,4.0,-999.0,83,0.00,,,0.32,Wunderground v.1.15,2013-03-25 23:54:00,
2013-03-25 18:59:00,33.5,28.6,30.12,NE,41,5.0,-999.0,82,0.00,,,0.32,Wunderground v.1.15,2013-03-25 23:59:00,
2013-03-25 19:04:00,33.4,28.5,30.12,North,10,6.0,-999.0,82,0.00,,,0.32,Wunderground v.1.15,2013-03-26 00:04:00,
2013-03-25 19:09:00,33.3,28.4,30.12,NNE,32,6.0,-999.0,82,0.00,,,0.32,Wunderground v.1.15,2013-03-26 00:09:00,
2013-03-25 19:19:00,33.2,28.6,30.13,NNE,28,6.0,-999.0,83,0.00,,,0.32,Wunderground v.1.15,2013-03-26 00:19:00,
2013-03-25 19:24:00,33.1,28.5,30.13,NE,36,5.0,-999.0,83,0.00,,,0.32,Wunderground v.1.15,2013-03-26 00:24:00,
2013-03-25 19:29:00,33.1,28.5,30.13,North,360,4.0,-999.0,83,0.00,,,0.32,Wunderground v.1.15,2013-03-26 00:29:00,
2013-03-25 19:34:00,33.1,28.5,30.13,North,355,4.0,-999.0,83,0.00,,,0.32,Wunderground v.1.15,2013-03-26 00:34:00,
2013-03-25 19:39:00,33.0,28.4,30.13,North,355,3.0,-999.0,83,0.00,,,0.32,Wunderground v.1.15,2013-03-26 00:39:00,
2013-03-25 19:45:00,33.1,28.5,30.14,NNW,330,3.0,-999.0,83,0.00,,,0.32,Wunderground v.1.15,2013-03-26 00:45:00,
2013-03-25 19:54:00,33.1,28.2,30.14,NNE,17,3.0,-999.0,82,0.00,,,0.32,Wunderground v.1.15,2013-03-26 00:54:00,
2013-03-25 19:59:00,33.1,28.2,30.15,NNE,29,4.0,-999.0,82,0.00,,,0.32,Wunderground v.1.15,2013-03-26 00:59:00,
2013-03-25 20:04:00,33.1,28.5,30.15,NE,37,4.0,-999.0,83,0.00,,,0.32,Wunderground v.1.15,2013-03-26 01:04:00,
2013-03-25 20:09:00,33.1,28.5,30.14,NNE,17,3.0,-999.0,83,0.00,,,0.32,Wunderground v.1.15,2013-03-26 01:09:00,
2013-03-25 20:14:00,33.0,28.4,30.15,North,11,3.0,-999.0,83,0.00,,,0.32,Wunderground v.1.15,2013-03-26 01:14:00,
2013-03-25 20:20:00,33.0,28.4,30.15,NNW,335,3.0,-999.0,83,0.00,,,0.32,Wunderground v.1.15,2013-03-26 01:20:00,
2013-03-25 20:25:00,33.0,28.1,30.15,North,355,3.0,-999.0,82,0.00,,,0.32,Wunderground v.1.15,2013-03-26 01:25:00,
2013-03-25 20:30:00,33.0,28.4,30.15,North,360,3.0,-999.0,83,0.00,,,0.32,Wunderground v.1.15,2013-03-26 01:30:00,
2013-03-25 20:35:00,32.9,28.3,30.15,NNE,20,3.0,-999.0,83,0.00,,,0.32,Wunderground v.1.15,2013-03-26 01:35:00,
2013-03-25 20:40:00,33.0,28.1,30.15,NNE,30,4.0,-999.0,82,0.00,,,0.32,Wunderground v.1.15,2013-03-26 01:40:00,
2013-03-25 20:45:00,32.9,27.7,30.16,North,9,5.0,-999.0,81,0.00,,,0.32,Wunderground v.1.15,2013-03-26 01:45:00,
2013-03-25 20:55:00,33.0,27.5,30.16,NNE,15,4.0,-999.0,80,0.00,,,0.32,Wunderground v.1.15,2013-03-26 01:55:00,
2013-03-25 21:00:00,33.0,27.8,30.16,NE,37,2.0,-999.0,81,0.00,,,0.32,Wunderground v.1.15,2013-03-26 02:00:00,
2013-03-25 21:05:00,32.9,27.7,30.17,NNE,18,2.0,-999.0,81,0.00,,,0.32,Wunderground v.1.15,2013-03-26 02:05:00,
2013-03-25 21:10:00,32.9,27.7,30.17,NNE,17,3.0,-999.0,81,0.00,,,0.32,Wunderground v.1.15,2013-03-26 02:10:00,
2013-03-25 21:15:00,32.9,27.7,30.17,NNE,14,3.0,-999.0,81,0.00,,,0.32,Wunderground v.1.15,2013-03-26 02:15:00,
2013-03-25 21:25:00,32.8,28.2,30.17,NNE,15,3.0,-999.0,83,0.00,,,0.32,Wunderground v.1.15,2013-03-26 02:25:00,
2013-03-25 21:30:00,32.8,28.2,30.17,North,360,2.0,-999.0,83,0.00,,,0.32,Wunderground v.1.15,2013-03-26 02:30:00,
2013-03-25 21:35:00,32.8,28.2,30.17,North,355,3.0,-999.0,83,0.00,,,0.32,Wunderground v.1.15,2013-03-26 02:35:00,
2013-03-25 21:40:00,32.7,28.1,30.18,North,10,3.0,-999.0,83,0.00,,,0.32,Wunderground v.1.15,2013-03-26 02:40:00,
2013-03-25 21:45:00,32.7,28.1,30.18,North,5,3.0,-999.0,83,0.00,,,0.32,Wunderground v.1.15,2013-03-26 02:45:00,
2013-03-25 21:50:00,32.7,28.1,30.18,NNE,13,2.0,-999.0,83,0.00,,,0.32,Wunderground v.1.15,2013-03-26 02:50:00,
2013-03-25 22:00:00,32.6,28.0,30.18,North,351,3.0,-999.0,83,0.00,,,0.32,Wunderground v.1.15,2013-03-26 03:00:00,
2013-03-25 22:05:00,32.6,28.0,30.18,NNE,19,3.0,-999.0,83,0.00,,,0.32,Wunderground v.1.15,2013-03-26 03:05:00,
2013-03-25 22:10:00,32.6,28.0,30.18,NNW,342,3.0,-999.0,83,0.00,,,0.32,Wunderground v.1.15,2013-03-26 03:10:00,
2013-03-25 22:15:00,32.6,28.0,30.18,North,5,2.0,-999.0,83,0.00,,,0.32,Wunderground v.1.15,2013-03-26 03:15:00,
2013-03-25 22:20:00,32.5,27.9,30.18,North,360,2.0,-999.0,83,0.00,,,0.32,Wunderground v.1.15,2013-03-26 03:20:00,
2013-03-25 22:25:00,32.5,27.9,30.18,NNW,327,2.0,-999.0,83,0.00,,,0.32,Wunderground v.1.15,2013-03-26 03:25:00,
2013-03-25 22:30:00,32.5,27.9,30.18,NNE,17,2.0,-999.0,83,0.00,,,0.32,Wunderground v.1.15,2013-03-26 03:30:00,
2013-03-25 22:35:00,32.5,27.6,30.18,NNE,32,3.0,-999.0,82,0.00,,,0.32,Wunderground v.1.15,2013-03-26 03:35:00,
2013-03-25 22:40:00,32.5,27.6,30.18,North,5,2.0,-999.0,82,0.00,,,0.32,Wunderground v.1.15,2013-03-26 03:40:00,
2013-03-25 22:45:00,32.5,27.6,30.18,North,9,3.0,-999.0,82,0.00,,,0.32,Wunderground v.1.15,2013-03-26 03:45:00,
2013-03-25 22:50:00,32.5,27.6,30.19,North,5,3.0,-999.0,82,0.00,,,0.32,Wunderground v.1.15,2013-03-26 03:50:00,
2013-03-25 22:55:00,32.5,27.6,30.19,North,11,3.0,-999.0,82,0.00,,,0.32,Wunderground v.1.15,2013-03-26 03:55:00,
2013-03-25 23:05:00,32.5,27.3,30.19,North,355,3.0,-999.0,81,0.00,,,0.32,Wunderground v.1.15,2013-03-26 04:05:00,
2013-03-25 23:10:00,32.5,27.6,30.19,NW,317,2.0,-999.0,82,0.00,,,0.32,Wunderground v.1.15,2013-03-26 04:10:00,
2013-03-25 23:15:00,32.5,27.3,30.19,NNW,342,2.0,-999.0,81,0.00,,,0.32,Wunderground v.1.15,2013-03-26 04:15:00,
2013-03-25 23:20:00,32.5,27.3,30.18,NNW,340,1.0,-999.0,81,0.00,,,0.32,Wunderground v.1.15,2013-03-26 04:20:00,
2013-03-25 23:25:00,32.5,27.6,30.18,NW,326,1.0,-999.0,82,0.00,,,0.32,Wunderground v.1.15,2013-03-26 04:25:00,
2013-03-25 23:29:00,32.4,27.2,30.19,North,355,2.0,-999.0,81,0.00,,,0.32,Wunderground v.1.15,2013-03-26 04:29:00,
2013-03-25 23:34:00,32.4,27.2,30.19,North,355,2.0,-999.0,81,0.00,,,0.32,Wunderground v.1.15,2013-03-26 04:34:00,
2013-03-25 23:39:00,32.4,27.2,30.19,North,350,2.0,-999.0,81,0.00,,,0.32,Wunderground v.1.15,2013-03-26 04:39:00,
2013-03-25 23:44:00,32.4,27.2,30.19,North,350,2.0,-999.0,81,0.00,,,0.32,Wunderground v.1.15,2013-03-26 04:44:00,
2013-03-25 23:49:00,32.4,27.2,30.19,WNW,296,2.0,-999.0,81,0.00,,,0.32,Wunderground v.1.15,2013-03-26 04:49:00,
2013-03-25 23:55:00,32.4,27.2,30.19,WNW,296,2.0,-999.0,81,0.00,,,0.32,Wunderground v.1.15,2013-03-26 04:55:00,